Weather reports worldwide

Advertisment
Falsterbo A, Sweden (2615): temperature & dewpoint: 17.10.2019 21:00:00 - 23.10.2019 21:00:00 (CEST)Falsterbo A, Sweden (2615): wind speed & gusts: 17.10.2019 21:00:00 - 23.10.2019 21:00:00 (CEST)Falsterbo A, Sweden (2615): wind direction: 17.10.2019 21:00:00 - 23.10.2019 21:00:00 (CEST)Falsterbo A, Sweden (2615): reduced air pressure: 17.10.2019 21:00:00 - 23.10.2019 21:00:00 (CEST)Falsterbo A, Sweden (2615): visibility: 17.10.2019 21:00:00 - 23.10.2019 21:00:00 (CEST)Falsterbo A, Sweden (2615): precipitation: 17.10.2019 21:00:00 - 23.10.2019 21:00:00 (CEST)
Date & Time tt [°C] td [°C] ff [km/h] ff [kn] fx [km/h] fx [kn] dd ppp [hPa] vv [km] rr [mm]
23.10.2019 21:00:00 11,7 11,5 18 10 23 13 SSE 1017,0 4,3 0,0
23.10.2019 20:00:00 11,2 11,0 15 8 22 12 SSE 1017,6 2,9 0,0
23.10.2019 19:00:00 10,9 10,6 15 8 19 11 SSE 1017,7 2,8 0,0
23.10.2019 18:00:00 11,2 10,7 17 9 24 13 S 1018,2 6 0,0
23.10.2019 17:00:00 11,4 10,3 17 9 24 13 S 1018,2 6 0,0
23.10.2019 16:00:00 13,1 11,2 19 10 24 13 S 1018,8 8 0,0
23.10.2019 15:00:00 13,1 11,3 17 9 23 13 SSW 1019,2 7 0,0
23.10.2019 14:00:00 13,6 11,6 18 10 29 16 SW 1019,9 11 0,0
23.10.2019 13:00:00 12,9 12,1 21 11 29 16 SW 1020,4 9 0,0
23.10.2019 12:00:00 12,6 11,0 20 11 26 14 SW 1020,9 15 0,0
23.10.2019 11:00:00 12,2 10,4 20 11 29 15 SW 1021,0 13 0,0
23.10.2019 10:00:00 12,6 9,2 5 3 19 10 W 1020,9 50 0,0
23.10.2019 09:00:00 12,1 8,4 16 9 24 13 WSW 1021,1 50 0,0
23.10.2019 08:00:00 12,0 8,1 21 11 27 14 W 1021,0 50 0,0
23.10.2019 07:00:00 11,7 8,0 18 10 26 14 W 1020,8 50 0,0
23.10.2019 06:00:00 11,8 7,9 19 11 35 19 W 1020,9 50 0,0
23.10.2019 05:00:00 11,7 7,4 26 14 - - W 1021,0 50 0,0
23.10.2019 04:00:00 11,1 7,4 29 15 36 19 W 1021,4 49 0,0
23.10.2019 03:00:00 11,5 7,6 24 13 34 19 W 1021,5 50 0,0
23.10.2019 02:00:00 11,7 7,4 26 14 36 19 W 1021,5 50 0,0
23.10.2019 01:00:00 12,0 7,9 32 17 39 21 W 1021,5 50 0,0
23.10.2019 00:00:00 12,0 9,9 25 14 32 18 W 1021,6 47 0,0
22.10.2019 23:00:00 12,3 10,9 24 13 35 19 WSW 1021,5 23 0,0
22.10.2019 22:00:00 12,5 11,4 26 14 35 19 WSW 1021,2 - 0,0
22.10.2019 21:00:00 12,4 11,3 31 17 41 22 WSW 1021,0 12 0,0
22.10.2019 20:00:00 12,7 11,6 32 17 39 21 WSW 1020,8 11 0,0
22.10.2019 19:00:00 12,6 11,3 29 16 39 21 WSW 1020,3 11 0,0
22.10.2019 18:00:00 12,9 11,5 29 16 37 20 WSW 1020,1 11 0,0
22.10.2019 17:00:00 12,6 11,0 32 17 41 22 WSW 1020,1 4,5 0,1
22.10.2019 16:00:00 13,0 10,9 33 18 41 22 WSW 1020,1 14 0,0
22.10.2019 15:00:00 13,0 10,5 34 19 42 23 WSW 1020,1 18 0,0
22.10.2019 14:00:00 13,1 10,1 31 17 44 24 WSW 1020,1 20 0,0
22.10.2019 13:00:00 13,3 9,9 36 19 42 23 WSW 1020,1 28 0,0
22.10.2019 12:00:00 12,8 10,0 35 19 45 24 WSW 1020,3 21 0,0
22.10.2019 11:00:00 12,4 10,3 32 17 39 21 SW 1020,2 20 0,0
22.10.2019 10:00:00 12,2 9,9 29 15 41 22 WSW 1019,7 29 0,0
22.10.2019 09:00:00 12,2 9,9 34 18 41 22 SW 1019,6 31 0,0
22.10.2019 08:00:00 12,1 11,5 29 16 37 20 WSW 1019,3 15 0,0
22.10.2019 07:00:00 12,5 12,3 24 13 29 15 SW 1018,6 4,8 0,0
22.10.2019 06:00:00 11,8 11,6 17 9 24 13 SSW 1018,7 2,6 0,0
22.10.2019 05:00:00 12,3 12,1 20 11 24 13 SW 1018,9 3,9 0,0
22.10.2019 04:00:00 12,6 12,4 21 12 26 14 SW 1019,2 8 0,0
22.10.2019 03:00:00 12,5 12,3 18 10 24 13 WSW 1019,4 10 0,0
22.10.2019 02:00:00 12,7 12,5 19 11 24 13 WSW 1019,0 8 0,0
22.10.2019 01:00:00 13,1 12,9 15 8 27 14 WSW 1019,1 7 0,0
22.10.2019 00:00:00 13,1 12,9 17 9 22 12 WSW 1018,8 3,8 0,0
21.10.2019 23:00:00 13,0 12,8 16 9 25 13 SSW 1018,7 2,5 0,0
21.10.2019 22:00:00 13,0 12,8 16 9 20 11 SSW 1018,4 2,3 0,0
21.10.2019 21:00:00 12,5 12,3 16 9 23 13 SSE 1018,6 3,0 0,0
21.10.2019 20:00:00 12,2 12,0 18 10 29 16 ESE 1018,5 4,9 0,0
21.10.2019 19:00:00 12,3 11,8 22 12 36 20 ESE 1018,4 9 0,0
21.10.2019 18:00:00 12,4 11,1 26 14 - - ESE 1017,9 48 0,0
21.10.2019 17:00:00 12,5 10,7 25 14 32 18 E 1017,8 50 0,1
21.10.2019 16:00:00 12,8 10,0 24 13 33 18 E 1018,4 50 0,0
21.10.2019 15:00:00 13,0 9,8 18 10 34 19 E 1018,4 50 0,0
21.10.2019 14:00:00 13,6 10,9 25 13 53 28 E 1017,8 46 0,0
21.10.2019 13:00:00 12,5 11,4 24 13 29 16 E 1019,2 45 0,0
21.10.2019 12:00:00 12,9 12,7 18 10 28 15 E 1019,2 16 0,0
21.10.2019 11:00:00 11,9 11,7 15 8 21 12 E 1019,0 8 0,0
21.10.2019 10:00:00 11,6 11,4 13 7 24 13 E 1018,7 7 0,0
21.10.2019 09:00:00 11,6 11,4 16 9 22 12 E 1018,3 9 0,0
21.10.2019 08:00:00 11,2 11,0 13 7 19 10 E 1017,3 4,3 0,1
21.10.2019 07:00:00 11,3 11,1 9 5 14 8 NE 1017,3 3,2 0,1
21.10.2019 06:00:00 11,2 11,0 11 6 15 8 ENE 1016,5 3,0 0,0
21.10.2019 05:00:00 11,0 10,8 7 4 9 5 ENE 1016,6 7 0,0
21.10.2019 04:00:00 10,8 10,6 6 3 8 5 E 1016,4 9 0,0
21.10.2019 03:00:00 10,8 10,6 6 3 7 4 E 1016,3 6 0,1
21.10.2019 02:00:00 11,0 10,8 3 2 5 3 ESE 1016,0 16 0,0
21.10.2019 01:00:00 10,9 10,7 5 3 5 3 E 1015,2 17 0,0
21.10.2019 00:00:00 11,0 10,8 4 2 5 3 E 1014,8 - 0,0
20.10.2019 23:00:00 11,1 10,9 4 2 4 2 SSW 1014,8 8 0,0
20.10.2019 22:00:00 11,2 11,0 5 3 11 6 SSW 1014,4 10 0,1
20.10.2019 21:00:00 11,8 11,6 9 5 13 7 SSW 1014,0 3,7 0,4
20.10.2019 20:00:00 12,4 12,2 12 7 18 10 WSW 1013,8 9 0,1
20.10.2019 19:00:00 12,3 12,1 13 7 16 9 SSW 1012,9 3,9 0,1
20.10.2019 18:00:00 12,5 12,2 9 5 13 7 SW 1012,5 11 0,0
20.10.2019 17:00:00 12,9 12,3 8 5 12 7 SSW 1012,1 11 0,0
20.10.2019 16:00:00 13,2 12,3 9 5 11 6 SSW 1012,0 10 0,0
20.10.2019 15:00:00 13,3 11,9 10 5 12 7 SW 1011,5 13 0,0
20.10.2019 14:00:00 13,6 12,3 9 5 15 8 SW 1011,1 15 0,0
20.10.2019 13:00:00 13,5 12,6 12 6 16 9 SSW 1010,9 13 0,0
20.10.2019 12:00:00 13,0 12,4 10 6 14 8 SSW 1010,5 10 0,0
20.10.2019 11:00:00 12,7 12,4 13 7 17 9 SW 1010,5 10 0,0
20.10.2019 10:00:00 12,4 12,2 15 8 19 10 SW 1010,0 10 0,0
20.10.2019 09:00:00 12,1 11,9 13 7 16 8 SW 1009,1 9 0,0
20.10.2019 08:00:00 11,7 11,5 12 7 16 9 SSW 1008,7 6 0,0
20.10.2019 07:00:00 11,9 11,7 11 6 17 9 SW 1008,3 10 0,0
20.10.2019 06:00:00 12,5 12,3 16 9 24 13 WSW 1007,9 17 0,0
20.10.2019 05:00:00 12,6 12,4 18 10 22 12 SW 1007,6 17 0,0
20.10.2019 04:00:00 12,8 12,6 17 9 25 13 SW 1007,4 26 0,0
20.10.2019 03:00:00 12,8 12,6 19 11 27 15 SSW 1007,1 21 0,0
20.10.2019 02:00:00 12,7 12,5 25 13 35 19 SSW 1007,0 28 0,0
20.10.2019 01:00:00 12,8 12,6 24 13 35 19 SSW 1007,0 16 0,2
20.10.2019 00:00:00 12,7 12,5 29 15 41 22 SSW 1006,6 10 0,7
19.10.2019 23:00:00 12,5 12,3 34 19 44 24 S 1006,5 8 0,9
19.10.2019 22:00:00 12,6 12,3 33 18 41 22 S 1006,6 10 0,8
19.10.2019 21:00:00 13,1 11,5 29 16 37 20 S 1006,4 23 0,0
19.10.2019 20:00:00 13,1 11,0 30 16 37 20 S 1006,6 50 -
19.10.2019 19:00:00 13,0 11,4 27 14 34 18 S 1006,8 38 0,0
19.10.2019 18:00:00 12,6 10,8 24 13 34 19 S 1006,9 42 0,0
19.10.2019 17:00:00 12,8 10,5 26 14 39 21 S 1006,7 40 0,0
19.10.2019 16:00:00 13,2 10,4 29 16 39 21 S 1007,1 36 0,0
19.10.2019 15:00:00 13,4 10,2 30 16 39 21 S 1006,9 42 0,0
19.10.2019 14:00:00 14,2 10,4 32 17 42 23 S 1007,5 41 0,0
19.10.2019 13:00:00 13,6 10,2 31 17 39 21 S 1007,2 45 0,0
19.10.2019 12:00:00 12,5 9,5 32 17 41 22 S 1007,3 43 0,0
19.10.2019 11:00:00 12,0 9,6 32 17 50 27 SW 1007,4 46 0,0
19.10.2019 10:00:00 12,0 9,4 39 21 49 26 SW 1007,3 45 0,0
19.10.2019 09:00:00 11,8 9,2 36 19 44 24 SW 1007,2 50 0,0
19.10.2019 08:00:00 11,6 9,0 34 18 48 26 SW 1006,8 44 0,0
19.10.2019 07:00:00 11,8 8,6 37 20 49 26 SW 1006,5 49 0,0
19.10.2019 06:00:00 11,8 8,6 36 19 49 26 SW 1006,5 48 0,0
19.10.2019 05:00:00 11,7 8,7 35 19 51 28 SW 1006,1 43 0,0
19.10.2019 04:00:00 11,6 8,6 35 19 46 25 SW 1005,5 50 0,0
19.10.2019 03:00:00 11,7 8,7 35 19 48 26 SW 1005,8 49 0,0
19.10.2019 02:00:00 12,0 8,8 36 20 53 29 SW 1005,5 50 0,0
19.10.2019 01:00:00 12,3 9,1 37 20 51 28 SW 1005,2 47 0,0
19.10.2019 00:00:00 12,2 8,9 37 20 53 29 SW 1004,9 49 0,0
18.10.2019 23:00:00 12,8 8,9 45 24 57 31 SW 1004,2 50 0,0
18.10.2019 22:00:00 12,8 9,8 38 20 53 29 SW 1004,0 50 0,0
18.10.2019 21:00:00 12,8 9,2 43 23 64 35 SSW 1003,9 37 0,0
18.10.2019 20:00:00 13,2 11,9 44 24 62 33 S 1002,3 13 0,4
18.10.2019 19:00:00 13,4 12,1 31 17 39 21 SE 1002,7 11 0,0
18.10.2019 18:00:00 13,1 11,7 27 15 34 18 SE 1003,7 - 0,0
18.10.2019 17:00:00 13,5 11,9 25 13 31 17 SE 1004,1 13 0,0
18.10.2019 16:00:00 13,6 12,2 22 12 30 16 SE 1004,8 13 0,0
18.10.2019 15:00:00 14,1 12,8 23 12 28 15 SSE 1005,8 19 0,0
18.10.2019 14:00:00 14,5 13,2 22 12 33 18 SSE 1006,3 18 0,0
18.10.2019 13:00:00 14,2 13,1 24 13 36 19 S 1007,1 - 0,0
18.10.2019 12:00:00 14,2 13,1 29 16 36 19 S 1007,5 12 0,0
18.10.2019 11:00:00 13,5 12,4 24 13 33 18 S 1007,7 15 0,0
18.10.2019 10:00:00 13,0 12,0 25 14 36 19 SSE 1007,9 7 0,4
18.10.2019 09:00:00 12,9 12,7 27 14 36 19 SSE 1008,0 16 0,0
18.10.2019 08:00:00 12,6 12,4 23 13 - - SSE 1008,1 6 0,0
18.10.2019 07:00:00 12,8 12,6 22 12 30 16 SSE 1008,5 5 -
18.10.2019 06:00:00 12,8 12,6 17 9 22 12 SE 1008,8 2,9 0,1
18.10.2019 05:00:00 12,7 12,5 14 7 16 9 SE 1009,4 2,5 0,7
18.10.2019 04:00:00 12,7 12,5 11 6 14 8 SE 1009,7 1,9 0,0
18.10.2019 03:00:00 12,2 12,0 10 5 11 6 SE 1010,5 1,4 0,0
18.10.2019 02:00:00 11,2 11,0 3 1 9 5 W 1010,7 1,9 0,0
18.10.2019 01:00:00 11,9 11,7 8 5 14 7 WSW 1011,0 3,9 0,1
18.10.2019 00:00:00 12,4 12,2 9 5 19 10 WSW 1011,0 3,0 0,0
17.10.2019 23:00:00 12,3 12,1 16 9 22 12 WSW 1011,2 0,4 0,0
17.10.2019 22:00:00 12,1 11,9 10 6 20 11 SW 1011,0 1,6 0,0
17.10.2019 21:00:00 13,2 13,0 16 9 23 13 WSW 1010,8 4,8 0,0

tt = temperature
td = dewpoint
ff = wind speed
fx = gusts
dd = wind direction
ppp = reduced air pressure
vv = visibility
rr = precipitation

Next stations